Location: Newark
(13.8625°N, 100.5144°E)
Time: 17:36:31
(UTC+00:00)

LightSail 2 - Pass Details

Date: 09 May 2021
Orbit: 685 x 700 km, 24.0° (Epoch: 11 June)

Event Time Altitude Azimuth Distance (km) Brightness Sun altitude
Exits shadow 21:58:19 - 300° (WNW) 2,585 7.7 -13.2°
Reaches altitude 10° 21:59:45 10° 308° (NW) 2,126 7.3 -12.9°
Maximum altitude 22:03:55 26° 5° (N) 1,336 6.9 -12.0°
Drops below altitude 10° 22:08:05 10° 61° (ENE) 2,119 9.1 -11.0°
Sets 22:10:50 0° 74° (ENE) 3,032 10.6 -10.4°
